一网星座-0350星 (ONEWEB-0350 )

导读 | 星芒AI

ONEWEB-0350 是 OneWeb 卫星星座计划中的一颗低轨通信卫星,旨在为全球提供高速互联网服务。该卫星由阿丽亚娜集团制造,搭载先进通信载荷,支持宽带连接,主要用于偏远和未覆盖地区的网络接入。作为 OneWeb 扩展其卫星网络的一部分,ONEWEB-0350 于近期成功发射并部署至预定轨道,进一步增强其全球通信能力。该卫星采用可再生设计,符合可持续太空发展原则。

基本信息
目录编号:
49214
目录名称:
ONEWEB-0350
国际标识:
2021-083AE
轨道中心:
EARTH
卫星名称:
一网星座-0350星
卫星全名:
一网星座-0350星 (ONEWEB-0350 )
卫星状态:
在轨 (已飞行1553 天)
发射日期:
2021-09-14 UTC
国别 :
英国 (GB)
星等 :
--
轨道信息
数据来源 国际轨道数据
星历时间: 2025-12-15T06:09:31+0800
20小时前
查看轨道信息
半长轴: 7587.899km
偏心率: 0.0001425
轨道倾角: 87.898°
近地点辐角 93.908°
升交点赤经 356.845°
平近点角 266.221°
近地点: 1208.682km
远地点: 1210.846km
周期: 109.633分钟
每日圈数: 13.13471
详细信息
平衡模式:
三轴稳定
覆盖范围:
全球
运营商:
一网卫星公司
运营商所在国:
英国
制造商(研发单位):
一网卫星公司
制造商所在国:
英国
使用方式:
暂无
卫星简介
OneWeb卫星网络由648颗重约125公斤的微型卫星组成,运行在1200公里的轨道上。 每颗卫星都能够提供至少每秒8千兆位的吞吐量,以使用其高吞吐量的Ku频段有效载荷为家庭和移动平台提供互联网接入。该卫星仍在工作。
2D轨道图
3D轨道图
轨道高度分析图
轨道倾角分析图
轨道综合分析图
查看轨道综合分析图